This demonstration page uses our WeatherBlox Daily Observations layout. Learn more.

41.55636, -103.73856

Hourly Observations for June 22, 2017

Temp ( °F °C ) Dew Point ( °F °C ) Humidity (%) Winds ( mph kmh ) Pressure ( in mb ) Visibility ( mi km ) Precip ( " mm )
12:53 am 00:53 Clear 72 22.2 50 10 46 46 ESE 5 7 29.58 1002 10 16.0934 0 0
1:53 am 01:53 Clear 66 18.9 51 10.6 59 59 E 6 9 29.56 1001 10 16.0934 0 0
2:53 am 02:53 Clear 63 17.2 50 10 63 63 NE 6 9 29.57 1001 10 16.0934 0 0
3:53 am 03:53 Clear 66 18.9 47 8.3 50 50 WNW 6 9 29.57 1001 10 16.0934 0 0
4:53 am 04:53 Clear 61 16.1 48 8.9 63 63 NW 9 15 29.59 1002 10 16.0934 0 0
5:53 am 05:53 Sunny 61 16.1 51 10.6 70 70 WNW 13 20 29.64 1004 10 16.0934 0 0
6:53 am 06:53 Sunny 64 17.8 52 11.1 65 65 NNW 15 24 29.68 1005 10 16.0934 0 0
7:53 am 07:53 Sunny 68 20 51 10.6 55 55 NNW 9 15 29.72 1006 10 16.0934 0 0
8:53 am 08:53 Sunny 73 22.8 51 10.6 46 46 NNW 17 28 29.75 1007 10 16.0934 0 0
9:53 am 09:53 Sunny 77 25 50 10 39 39 NNW 15 24 29.75 1008 10 16.0934 0 0
10:53 am 10:53 Sunny 78 25.6 50 10 37 37 NNE 14 22 29.78 1008 10 16.0934 0 0
11:53 am 11:53 Sunny 79 26.1 51 10.6 38 38 NNE 17 28 29.78 1008 10 16.0934 0 0
12:53 pm 12:53 Sunny 78 25.6 50 10 37 37 NE 16 26 29.78 1008 10 16.0934 0 0
1:53 pm 13:53 Partly Cloudy 81 27.2 49 9.4 33 33 N 16 26 29.77 1008 10 16.0934 0 0
2:53 pm 14:53 Sunny 80 26.7 51 10.6 37 37 NNE 13 20 29.77 1008 10 16.0934 0 0
3:53 pm 15:53 Sunny 81 27.2 53 11.7 38 38 NNE 20 31 29.75 1007 10 16.0934 0 0
4:53 pm 16:53 Mostly Sunny 80 26.7 53 11.7 39 39 NE 13 20 29.77 1008 10 16.0934 0 0
5:53 pm 17:53 Mostly Cloudy 78 25.6 51 10.6 39 39 ENE 13 20 29.8 1009 10 16.0934 0 0
6:53 pm 18:53 Cloudy 76 24.4 49 9.4 39 39 ENE 14 22 29.82 1010 10 16.0934 0 0
7:53 pm 19:53 Cloudy 74 23.3 47 8.3 38 38 ENE 14 22 29.83 1010 10 16.0934 0 0
8:53 pm 20:53 Cloudy 72 22.2 47 8.3 41 41 ENE 13 20 29.84 1010 10 16.0934 0 0
9:53 pm 21:53 Cloudy 70 21.1 47 8.3 44 44 NE 13 20 29.86 1011 10 16.0934 0 0
10:53 pm 22:53 Cloudy 68 20 46 7.8 45 45 NE 12 19 29.89 1012 10 16.0934 0 0.0254
11:53 pm 23:53 Cloudy 67 19.4 42 5.6 41 41 NNE 12 19 29.93 1014 10 16.0934 0 0

Powered by AerisWeather